SL-3 R/B (14208 NORAD) Tracking and Keplerian Element Data

This shows tracking and keplerian element data for the satellite.

Feedback or suggestion? Click here.




ElementValue
Catalog14208
NameSL-3 R/B
Epoch Orbit9995
Epoch Day15.89211346
Epoch Year2022
RAAN354.2723
Inclination97.4637
Eccentricity0.0039629
Argument of Perigee115.6395
Mean Anonmoly244.8937
Mean Motion15.11810986
Decay Rate1.385E-05
L11 14208U 83075B 22015.89211346 .00001385 00000+0 83408-4 0 9995
L22 14208 97.4637 354.2723 0039629 115.6395 244.8937 15.11810986 99957

Live tracking and technical data element details for SL-3 R/B (NORAD 14208). SL-3 R/B can be tracked NOW for your location showing map with azimuth and elevation plus other details from your city location.

Track the satellite on the map from your city or location and see movement details for azimuth, elevation, latitude, longitude, range, height, and movement on the map or in text.







IsCatalogInMostPopularTable: catalog: 14208, numindb: 296
Update: records affected: 1



GetName: 14208 SL-3 R/B

Hit Count: updated at: Mon, 17 Jan 2022 01:42:34 GMT